Current weather by "City, St" or "zip code"  
 

Current Conditions: Grand Forks Air Force Base, ND

Overcast and Windy


40.0 F

Last Updated on Oct 31 2020, 12:56 pm CDT
Humidity: 56%
Wind Speed: NW 28.8 G 36.8 mph
Barometer 29.73 in
Dewpoint: 25.0 F
Visibility: 10.00 mi
Precip: --
Heat Index: NA
Wind Chill: 29 F
Current conditions at:

Grand Forks Air Force Base, ND (KRDR)

Lat: 47.96667 Lon: 97.4

Local Radar Image active severe weather and emergency alerts image image weather storm and storm spotter reports image weather observation monitoring service image
Local
Radar
Active
Alerts
Storm Reports Obs
Monitoring

Sign-up For Email & Text Message Weather Alert Notification Services



Advertise Here

Observation History for Grand Forks Air Force Base, ND


Time Wind
(mph)
Vis
(mi)
Weather Precip (in) Temperature (F) Relative
Humidity
Wind
Chill
(F)
Heat
Index
(F)
Pressure
Air Dwpt altimeter
(in)
sea level
(mb)
Rmks
12:56 pm CDT NW 28.8 G 36.8 10.00 Overcast and Windy -- 40.0 25.0 56% 29 NA 29.73 1008.0
11:56 am CDT NW 28.8 G 40.3 10.00 Overcast and Windy -- 42.0 27.9 58% 31 NA 29.69 1006.6
10:56 am CDT NW 23.0 G 35.7 10.00 Overcast and Breezy -- 42.0 31.3 65% 32 NA 29.67 1005.9
9:56 am CDT NW 25.3 G 34.5 10.00 Overcast and Breezy -- 42.0 33.6 73% 32 NA 29.64 1004.9
8:56 am CDT NW 18.4 G 26.5 10.00 Fair -- 43.0 38.8 84% 35 NA 29.58 1002.9
7:56 am CDT W 15.0 10.00 A Few Clouds -- 42.0 40.3 93% 34 NA 29.53 1001.2
6:56 am CDT W 11.5 10.00 A Few Clouds -- 41.0 40.1 97% 34 NA 29.51 1000.5
5:56 am CDT SW 13.8 10.00 Mostly Cloudy -- 38.0 37.8 99% 30 NA 29.50 1000.2
4:56 am CDT S 13.8 10.00 Fair -- 38.0 37.6 99% 30 NA 29.48 999.5
3:56 am CDT S 15.0 10.00 Partly Cloudy -- 37.0 37.2 99% 28 NA 29.52 1000.9
2:56 am CDT S 19.6 G 26.5 10.00 Partly Cloudy -- 38.0 36.7 95% 28 NA 29.57 1002.7
1:56 am CDT S 25.3 G 33.4 10.00 A Few Clouds and Breezy -- 38.0 36.7 94% 27 NA 29.53 1001.4
12:56 am CDT S 23.0 G 34.5 10.00 A Few Clouds and Breezy -- 38.0 36.3 94% 27 NA 29.59 1003.4
11:56 pm CDT S 26.5 G 38.0 10.00 Mostly Cloudy and Windy -- 38.0 36.1 92% 26 NA 29.65 1005.5
10:56 pm CDT S 26.5 G 34.5 10.00 Mostly Cloudy and Windy -- 39.0 36.1 90% 28 NA 29.70 1007.2
9:56 pm CDT S 25.3 G 33.4 10.00 Overcast and Breezy -- 39.0 36.3 89% 28 NA 29.75 1008.9
8:56 pm CDT S 24.2 G 31.1 10.00 Mostly Cloudy and Breezy -- 39.0 36.7 90% 28 NA 29.78 1010.0
7:56 pm CDT S 19.6 G 26.5 10.00 Partly Cloudy -- 39.0 37.8 94% 29 NA 29.85 1012.4
6:56 pm CDT S 15.0 10.00 Mostly Cloudy -- 41.0 37.4 88% 33 NA 29.88 1013.4
5:56 pm CDT S 15.0 10.00 Mostly Cloudy -- 42.0 37.4 85% 34 NA 29.92 1014.7
4:56 pm CDT S 12.7 10.00 Mostly Cloudy -- 42.0 37.8 84% 35 NA 29.96 1016.0
3:57 pm CDT S 10.4 10.00 Overcast -- 41.0 37.8 87% 35 NA 30.00 1017.4
2:58 pm CDT S 11.5 7.00 Mostly Cloudy -- 36.0 36.0 99% 28 NA 30.04 1018.9

Regional Weather Observation


Grand Forks Air Force Base, ND (KRDR)

Overcast and Windy
40.0 F

Grand Forks, Grand Forks International Airport, ND (KGFK)

Overcast and Breezy
40.0 F

CAVALIER, ND (K2C8)

Overcast and Windy
36.0 F

Walhalla Municipal Airport, ND (K96D)

Overcast and Windy
34.0 F

Hallock Municipal Airport, MN (KHCO)

Overcast and Windy
36.0 F

Hallock Municipal Airport, MN (KHCO)

Overcast and Windy
36.0 F